TIANWANG 1B (TW-1B)
1 40927U 15051C   19160.53272345  .00008924  00000-0  13940-3 0  9995
2 40927  97.1385 206.1062 0010045  65.5048  40.5232 15.53972787208596
TIANWANG 1A (TW-1A)
1 40928U 15051D   19160.46905073  .00002708  00000-0  68123-4 0  9997
2 40928  97.1455 191.9779 0013096 105.1656   2.6017 15.40713887207753
LAPAN A2
1 40931U 15052B   19159.48772771  .00000576  00000-0 -88668-5 0  9998
2 40931   5.9941 129.3994 0013203   7.7878 352.2572 14.76607296199755
LQSAT
1 40958U 15057A   19159.78245394  .00000109  00000-0  24597-4 0  9992
2 40958  97.8974 229.2454 0016743 273.4644  86.4633 14.73080984197349
CHUBUSAT 2
1 41338U 16012B   19159.51137111  .00000228  00000-0  11017-4 0  9990
2 41338  31.0020 209.4677 0013851   2.1325 357.9368 15.00148420181380
CHUBUSAT 3
1 41339U 16012C   19160.41348338  .00000241  00000-0  12021-4 0  9998
2 41339  31.0089 201.8380 0013769  18.0076 342.1053 15.00324759181513
OUFTI-1
1 41458U 16025C   19160.48513265  .00000832  00000-0  46298-4 0  9993
2 41458  98.1016 246.8595 0167296  28.5568 332.4697 15.05793030171199
E-STAR-2
1 41459U 16025D   19160.43293791  .00001200  00000-0  65255-4 0  9992
2 41459  98.1016 246.4741 0168210  30.0338 331.0399 15.05437708171156
AAUSAT 4
1 41460U 16025E   19160.28734116  .00001620  00000-0  84828-4 0  9991
2 41460  98.0950 247.5374 0158258  23.3867 337.4452 15.07307664171251
NUSAT 1
1 41557U 16033B   19160.47796257  .00001182  00000-0  47073-4 0  9996
2 41557  97.4178 248.0311 0013038 337.2156  22.8502 15.27186797168682
BEESAT 4
1 41619U 16040W   19159.72613394  .00001134  00000-0  50985-4 0  9992
2 41619  97.3681 222.1352 0012894  63.3470 296.9086 15.23095320152346
PRATHAM
1 41783U 16059A   19159.81915228  .00000018  00000-0  12632-4 0  9992
2 41783  98.0679 219.6186 0034700  56.6195 303.8319 14.62994034144102
ALSAT 1N
1 41789U 16059G   19160.43124427  .00000075  00000-0  23167-4 0  9999
2 41789  98.0705 222.1910 0029480  44.8107 315.5470 14.64242959144295
NAYIF 1
1 42017U 17008BX  19160.44872491  .00001567  00000-0  64715-4 0  9992
2 42017  97.4036 227.6378 0005909 185.7854 174.3316 15.25497169128512
MAX VALIER SAT
1 42778U 17036P   19159.73258855 +.00000714 +00000-0 +34270-4 0  9995
2 42778 097.3551 217.6182 0010639 257.3269 102.6778 15.21992243108727
